[[{"header":{"parameterUnit":"m.s-1","parameterCategory":1,"la1":30.2992,"la2":30.254,"lo1":-89.0895,"lo2":-89.0443,"dy":0.0025,"dx":0.0025,"nx":19,"ny":19,"refTime":"2026-04-01T03:00:00:Z","depth":0,"parameterNumber":2,"parameterNumberName":"U-component_of_WINDS"},"data":[0,0,0,-2.8784,-2.8787,-2.8925,-2.8926,-2.9099,-2.91,0,0,0,0,0,0,0,0,0,0,0,-2.8742,-2.8743,-2.8783,-2.8787,-2.8925,-2.8926,-2.9098,-2.91,0,0,0,0,0,0,0,0,0,0,0,-2.8741,-2.8743,-2.8744,-2.8787,-2.8925,-2.8926,-2.9098,-2.8995,0,0,0,0,0,0,0,0,0,0,-2.8861,-2.8822,-2.8742,-2.8744,-2.8788,-2.8925,-2.8926,-2.899,-2.9001,-2.9034,0,-2.9065,0,-2.9085,-2.9111,-2.9112,0,0,0,-2.8787,-2.8812,-2.885,-2.8744,-2.8789,-2.8925,-2.8863,-2.8996,-2.9009,-2.905,-2.9068,-2.9074,-2.9088,-2.9113,-2.9113,-2.9307,-2.9308,0,0,-2.878,-2.8766,-2.8841,-2.8859,-2.8839,-2.8858,-2.8867,-2.9004,-2.9022,-2.9068,-2.9078,-2.9091,-2.9114,-2.9115,-2.9306,-2.9307,0,0,0,-2.8757,-2.876,-2.8795,-2.8851,-2.8877,-2.8862,-2.8872,-2.9016,-2.9029,-2.908,-2.9093,-2.9115,-2.9117,-2.9305,-2.9306,-2.9335,0,0,0,-2.8753,-2.8748,-2.8792,-2.8785,-2.8874,-2.8949,-2.8882,-2.9019,-2.9035,-2.9092,-2.9115,-2.9118,-2.9304,-2.9306,-2.9332,-2.9351,0,0,0,-2.8733,-2.8745,-2.8765,-2.8784,-2.8843,-2.8947,-2.8967,-2.9023,-2.9043,-2.9112,-2.9119,-2.9303,-2.9305,-2.933,-2.9346,-2.9396,0,0,0,-2.8707,-2.879,-2.8765,-2.8862,-2.8842,-2.8965,-2.8967,-2.9059,-2.9121,-2.9116,-2.9304,-2.9306,-2.9329,-2.9344,-2.9393,-2.9433,-2.9449,0,0,-2.8803,-2.8801,-2.8858,-2.8841,-2.8964,-2.8944,-2.9072,-2.9142,-2.9161,-2.9257,-2.9262,-2.9333,-2.9346,-2.9395,-2.9548,-2.9561,0,0,0,-2.8884,-2.8925,-2.8961,-2.902,-2.9076,-2.9125,-2.9178,-2.9204,-2.9285,-2.9208,-2.9366,-2.9374,-2.9403,-2.9423,-2.9434,-2.9458,-2.9315,-2.9315,-2.9315,-2.8998,-2.9018,-2.9114,-2.9151,-2.9208,-2.9262,-2.9309,-2.9353,-2.9357,-2.9394,-2.9421,-2.9512,-2.9535,-2.9543,-2.9568,-2.9446,-2.9446,-2.9446,-2.9447,-2.9138,-2.9198,-2.9201,-2.9295,-2.9316,-2.9395,-2.9449,-2.9448,-2.9524,-2.9493,-2.952,-2.9482,-2.9556,-2.9579,-2.9449,-2.9449,-2.9448,-2.9448,-2.9448,-2.9213,-2.9245,-2.9276,-2.9362,-2.9427,-2.9461,-2.9533,-2.955,-2.9565,-2.9592,-2.9621,-2.9621,-2.962,-2.9605,-2.9606,-2.9606,-2.9606,-2.9607,-2.9607,-2.9277,-2.9311,-2.937,-2.9436,-2.9475,-2.9529,-2.9583,-2.9622,-2.9669,-2.9675,-2.9675,-2.9673,-2.9561,-2.953,-2.9612,-2.9611,-2.961,-2.961,-2.9609,-2.9407,-2.9381,-2.9472,-2.9511,-2.9589,-2.965,-2.9671,-2.9748,-2.9783,-2.9817,-2.981,-2.9725,-2.9723,-2.9715,-2.969,-2.9807,-2.9807,-2.9807,-2.9807,-2.9469,-2.947,-2.9566,-2.9627,-2.969,-2.9718,-2.9817,-2.9859,-2.9898,-2.992,-2.9906,-2.9875,-2.9866,-2.9869,-2.9857,-2.9834,-2.9986,-2.9986,-2.9986,-2.9549,-2.9557,-2.9639,-2.9678,-2.974,-2.9792,-2.9885,-2.9954,-2.9993,-2.9994,-2.9937,-2.993,-2.988,-2.9863,-2.986,-2.9842,-2.9799,0,0]},{"header":{"parameterUnit":"m.s-1","parameterCategory":1,"la1":30.2992,"la2":30.254,"lo1":-89.0895,"lo2":-89.0443,"dy":0.0025,"dx":0.0025,"nx":19,"ny":19,"refTime":"2026-04-01T03:00:00:Z","depth":0,"parameterNumber":3,"parameterNumberName":"V-component_of_WINDS"},"data":[0,0,0,3.1043,3.105,3.1427,3.1429,3.1889,3.1893,0,0,0,0,0,0,0,0,0,0,0,3.0915,3.0917,3.1042,3.1051,3.1427,3.1429,3.1888,3.1893,0,0,0,0,0,0,0,0,0,0,0,3.0914,3.0917,3.092,3.1053,3.1427,3.1429,3.1887,3.1611,0,0,0,0,0,0,0,0,0,0,3.125,3.1115,3.0916,3.092,3.1055,3.1427,3.1429,3.1599,3.1629,3.1708,0,3.1772,0,3.1839,3.1922,3.1923,0,0,0,3.1064,3.109,3.1206,3.092,3.1058,3.1426,3.1261,3.1616,3.165,3.1748,3.1778,3.1796,3.1847,3.1925,3.1927,3.234,3.2341,0,0,3.1043,3.0974,3.1182,3.1227,3.1165,3.1249,3.1273,3.1637,3.1666,3.178,3.1807,3.1854,3.1928,3.1931,3.2339,3.234,0,0,0,3.0975,3.0959,3.1067,3.1207,3.1277,3.126,3.1287,3.165,3.1691,3.1813,3.186,3.193,3.1935,3.2337,3.2339,3.2341,0,0,0,3.0963,3.0919,3.1057,3.1019,3.127,3.1468,3.1292,3.1666,3.1709,3.1858,3.193,3.194,3.2336,3.2338,3.2338,3.2353,0,0,0,3.0896,3.0912,3.0961,3.1014,3.1174,3.1463,3.1526,3.1677,3.1738,3.1924,3.1941,3.2335,3.2338,3.2335,3.2349,3.2445,0,0,0,3.0805,3.0954,3.0959,3.1145,3.117,3.146,3.1524,3.1744,3.1903,3.1932,3.2336,3.2339,3.2334,3.2346,3.2441,3.2515,3.2538,0,0,3.0955,3.0969,3.1084,3.11,3.1372,3.1408,3.1682,3.1893,3.1973,3.2214,3.2225,3.2339,3.2348,3.2444,3.2689,3.2706,0,0,0,3.1109,3.1191,3.1278,3.1426,3.1591,3.1737,3.1913,3.1993,3.2201,3.2082,3.24,3.2408,3.2467,3.2506,3.2521,3.2578,3.2353,3.2353,3.2353,3.1222,3.1319,3.1517,3.166,3.1804,3.1987,3.2115,3.2254,3.2307,3.2381,3.2453,3.2589,3.2632,3.2644,3.2702,3.2498,3.2498,3.2498,3.2498,3.1452,3.1586,3.1657,3.1875,3.1978,3.2163,3.2348,3.238,3.257,3.2541,3.2599,3.256,3.266,3.2717,3.2499,3.2499,3.2499,3.2499,3.2498,3.1539,3.162,3.1715,3.1944,3.2111,3.2252,3.2432,3.2519,3.2601,3.2658,3.2747,3.2747,3.2761,3.2694,3.2694,3.2695,3.2695,3.2695,3.2696,3.1592,3.1699,3.184,3.2031,3.2141,3.2298,3.2487,3.2599,3.2745,3.2795,3.2796,3.2845,3.2651,3.2602,3.2704,3.2702,3.2701,3.27,3.27,3.1794,3.1763,3.198,3.209,3.2326,3.2489,3.2598,3.282,3.2925,3.3012,3.3051,3.2892,3.2914,3.2902,3.2863,3.3026,3.3026,3.3027,3.3027,3.1869,3.1888,3.2133,3.2305,3.2484,3.2606,3.2854,3.3005,3.3156,3.3228,3.3217,3.3171,3.3156,3.3187,3.317,3.3134,3.3363,3.3364,3.3364,3.2001,3.2043,3.2234,3.2381,3.2574,3.2738,3.2976,3.3174,3.3338,3.338,3.3288,3.3274,3.3201,3.3172,3.321,3.318,3.3117,0,0]}]]